• In Belarus
  • List of Countries
  • For 7 days
  • Water Temperature
  • Satellite Maps
  • Weather Map
  • Weather Widgets
  • user-avatar
    Login

    Hourly Weather Shalim

    Today, 19 July, Thursday

    Time Temperature Precipitation Wind Pressure Humidity
    00:00 +32°C° 0 mm 6 mps 727 mmHg 56%
    01:00 +32°C° 0 mm 6 mps 727 mmHg 57%
    02:00 +32°C° 0 mm 6 mps 727 mmHg 57%
    03:00 +32°C° 0 mm 6 mps 727 mmHg 57%
    04:00 +30°C° 0 mm 6 mps 726 mmHg 59%
    05:00 +30°C° 0 mm 5 mps 727 mmHg 59%
    06:00 +30°C° 0 mm 5 mps 727 mmHg 59%
    07:00 +30°C° 0 mm 5 mps 728 mmHg 60%
    08:00 +32°C° 0 mm 5 mps 728 mmHg 56%
    09:00 +33°C° 0 mm 5 mps 728 mmHg 53%
    10:00 +36°C° 0 mm 4 mps 728 mmHg 43%
    11:00 +37°C° 0 mm 4 mps 728 mmHg 40%
    12:00 +39°C° 0 mm 5 mps 728 mmHg 36%
    13:00 +41°C° 0 mm 6 mps 728 mmHg 33%
    14:00 +40°C° 0 mm 6 mps 728 mmHg 36%
    15:00 +39°C° 0 mm 7 mps 728 mmHg 40%
    16:00 +38°C° 0 mm 8 mps 727 mmHg 43%
    17:00 +35°C° 0 mm 8 mps 727 mmHg 49%
    18:00 +34°C° 0 mm 8 mps 727 mmHg 56%
    19:00 +32°C° 0 mm 8 mps 727 mmHg 62%
    20:00 +31°C° 0 mm 8 mps 727 mmHg 63%
    21:00 +31°C° 0 mm 8 mps 727 mmHg 64%
    22:00 +29°C° 0 mm 8 mps 728 mmHg 65%
    23:00 +29°C° 0 mm 8 mps 727 mmHg 65%

    Tomorrow, 20 July, Friday

    Time Temperature Precipitation Wind Pressure Humidity
    00:00 +29°C° 0 mm 8 mps 727 mmHg 65%
    01:00 +29°C° 0 mm 8 mps 727 mmHg 65%
    02:00 +29°C° 0 mm 8 mps 727 mmHg 65%
    03:00 +29°C° 0 mm 9 mps 727 mmHg 66%
    04:00 +29°C° 0 mm 9 mps 727 mmHg 67%
    05:00 +29°C° 0 mm 9 mps 727 mmHg 67%
    06:00 +29°C° 0 mm 9 mps 727 mmHg 67%
    07:00 +29°C° 0 mm 9 mps 728 mmHg 67%
    08:00 +31°C° 0 mm 9 mps 728 mmHg 62%
    09:00 +32°C° 0 mm 9 mps 728 mmHg 58%
    10:00 +33°C° 0 mm 9 mps 729 mmHg 54%
    11:00 +33°C° 0 mm 9 mps 728 mmHg 54%
    12:00 +33°C° 0 mm 9 mps 728 mmHg 54%
    13:00 +33°C° 0 mm 9 mps 728 mmHg 54%
    14:00 +33°C° 0 mm 9 mps 727 mmHg 55%
    15:00 +33°C° 0 mm 10 mps 727 mmHg 56%
    16:00 +33°C° 0 mm 10 mps 726 mmHg 57%
    17:00 +32°C° 0 mm 9 mps 726 mmHg 58%
    18:00 +32°C° 0 mm 9 mps 726 mmHg 60%
    19:00 +31°C° 0 mm 9 mps 726 mmHg 61%
    20:00 +31°C° 0 mm 9 mps 726 mmHg 61%
    21:00 +31°C° 0 mm 9 mps 727 mmHg 61%
    22:00 +31°C° 0 mm 10 mps 727 mmHg 61%
    23:00 +31°C° 0 mm 9 mps 727 mmHg 60%

    Day after tomorrow, 21 July, Saturday

    Time Temperature Precipitation Wind Pressure Humidity
    00:00 +31°C° 0 mm 9 mps 727 mmHg 60%
    01:00 +31°C° 0 mm 8 mps 726 mmHg 59%
    02:00 +31°C° 0 mm 8 mps 726 mmHg 58%
    03:00 +30°C° 0 mm 7 mps 726 mmHg 57%
    04:00 +30°C° 0 mm 7 mps 726 mmHg 56%
    05:00 +32°C° 0 mm 7 mps 726 mmHg 55%
    06:00 +32°C° 0 mm 7 mps 726 mmHg 54%
    07:00 +32°C° 0 mm 7 mps 727 mmHg 52%
    08:00 +33°C° 0 mm 7 mps 727 mmHg 50%
    09:00 +34°C° 0 mm 7 mps 727 mmHg 48%
    10:00 +34°C° 0 mm 8 mps 728 mmHg 45%
    11:00 +35°C° 0 mm 7 mps 728 mmHg 43%
    12:00 +36°C° 0 mm 7 mps 728 mmHg 41%
    13:00 +38°C° 0 mm 7 mps 727 mmHg 39%
    14:00 +38°C° 0 mm 7 mps 727 mmHg 40%
    15:00 +38°C° 0 mm 7 mps 727 mmHg 41%
    16:00 +38°C° 0 mm 8 mps 726 mmHg 42%
    17:00 +36°C° 0 mm 7 mps 727 mmHg 46%
    18:00 +35°C° 0 mm 7 mps 727 mmHg 49%
    19:00 +34°C° 0 mm 7 mps 727 mmHg 52%
    20:00 +33°C° 0 mm 7 mps 727 mmHg 53%
    21:00 +33°C° 0 mm 8 mps 728 mmHg 54%
    22:00 +33°C° 0 mm 8 mps 728 mmHg 54%
    23:00 +32°C° 0 mm 8 mps 728 mmHg 55%

    22 July, Sunday

    Time Temperature Precipitation Wind Pressure Humidity
    00:00 +32°C° 0 mm 8 mps 728 mmHg 55%
    01:00 +32°C° 0 mm 9 mps 727 mmHg 56%
    02:00 +31°C° 0 mm 9 mps 727 mmHg 57%
    03:00 +31°C° 0 mm 10 mps 727 mmHg 58%
    04:00 +31°C° 0 mm 10 mps 726 mmHg 59%
    05:00 +31°C° 0 mm 10 mps 727 mmHg 58%
    06:00 +31°C° 0 mm 10 mps 727 mmHg 58%
    07:00 +31°C° 0 mm 10 mps 727 mmHg 57%
    08:00 +33°C° 0 mm 9 mps 728 mmHg 52%
    09:00 +34°C° 0 mm 8 mps 728 mmHg 46%
    10:00 +36°C° 0 mm 7 mps 728 mmHg 41%
    11:00 +39°C° 0 mm 7 mps 728 mmHg 37%
    12:00 +40°C° 0 mm 8 mps 727 mmHg 34%
    13:00 +43°C° 0 mm 8 mps 727 mmHg 31%
    14:00 +41°C° 0 mm 8 mps 727 mmHg 32%
    15:00 +42°C° 0 mm 9 mps 726 mmHg 33%
    16:00 +42°C° 0 mm 9 mps 726 mmHg 34%
    17:00 +39°C° 0 mm 9 mps 726 mmHg 38%
    18:00 +38°C° 0 mm 9 mps 726 mmHg 42%
    19:00 +37°C° 0 mm 8 mps 726 mmHg 45%
    20:00 +35°C° 0 mm 8 mps 727 mmHg 48%
    21:00 +34°C° 0 mm 8 mps 727 mmHg 50%
    22:00 +33°C° 0 mm 9 mps 727 mmHg 52%
    23:00 +33°C° 0 mm 8 mps 727 mmHg 52%

    23 July, Monday

    Time Temperature Precipitation Wind Pressure Humidity
    00:00 +33°C° 0 mm 8 mps 727 mmHg 52%
    01:00 +33°C° 0 mm 7 mps 726 mmHg 51%
    02:00 +32°C° 0 mm 7 mps 726 mmHg 52%
    03:00 +32°C° 0 mm 6 mps 725 mmHg 52%
    04:00 +32°C° 0 mm 6 mps 725 mmHg 53%
    05:00 +32°C° 0 mm 6 mps 725 mmHg 53%
    06:00 +32°C° 0 mm 6 mps 726 mmHg 53%
    07:00 +32°C° 0 mm 7 mps 726 mmHg 53%
    08:00 +34°C° 0 mm 7 mps 726 mmHg 48%
    09:00 +35°C° 0 mm 7 mps 727 mmHg 43%
    10:00 +38°C° 0 mm 7 mps 727 mmHg 38%
    11:00 +39°C° 0 mm 8 mps 726 mmHg 36%
    12:00 +41°C° 0 mm 8 mps 726 mmHg 33%
    13:00 +43°C° 0 mm 9 mps 726 mmHg 30%
    14:00 +43°C° 0 mm 9 mps 725 mmHg 31%
    15:00 +43°C° 0 mm 9 mps 725 mmHg 31%
    16:00 +43°C° 0 mm 9 mps 724 mmHg 32%
    17:00 +40°C° 0 mm 9 mps 724 mmHg 36%
    18:00 +38°C° 0 mm 9 mps 724 mmHg 41%
    19:00 +37°C° 0 mm 9 mps 725 mmHg 46%
    20:00 +35°C° 0 mm 8 mps 725 mmHg 47%
    21:00 +34°C° 0 mm 8 mps 725 mmHg 49%
    22:00 +34°C° 0 mm 7 mps 726 mmHg 51%
    23:00 +33°C° 0 mm 7 mps 725 mmHg 52%

    24 July, Tuesday

    Time Temperature Precipitation Wind Pressure Humidity
    00:00 +33°C° 0 mm 7 mps 725 mmHg 52%
    01:00 +33°C° 0 mm 7 mps 724 mmHg 53%
    02:00 +32°C° 0 mm 6 mps 724 mmHg 53%
    03:00 +32°C° 0 mm 6 mps 724 mmHg 53%
    04:00 +32°C° 0 mm 6 mps 724 mmHg 53%
    05:00 +32°C° 0 mm 6 mps 724 mmHg 52%
    06:00 +32°C° 0 mm 6 mps 725 mmHg 52%
    07:00 +32°C° 0 mm 6 mps 725 mmHg 52%
    08:00 +34°C° 0 mm 7 mps 726 mmHg 47%
    09:00 +36°C° 0 mm 7 mps 726 mmHg 41%
    10:00 +39°C° 0 mm 7 mps 726 mmHg 36%
    11:00 +39°C° 0 mm 8 mps 726 mmHg 34%
    12:00 +40°C° 0 mm 8 mps 725 mmHg 32%
    13:00 +41°C° 0 mm 8 mps 725 mmHg 31%
    14:00 +41°C° 0 mm 8 mps 725 mmHg 32%
    15:00 +41°C° 0 mm 8 mps 724 mmHg 34%
    16:00 +41°C° 0 mm 8 mps 724 mmHg 35%
    17:00 +39°C° 0 mm 9 mps 724 mmHg 40%
    18:00 +37°C° 0 mm 9 mps 724 mmHg 45%
    19:00 +36°C° 0 mm 10 mps 725 mmHg 50%
    20:00 +34°C° 0 mm 9 mps 725 mmHg 51%
    21:00 +34°C° 0 mm 9 mps 725 mmHg 52%
    22:00 +33°C° 0 mm 8 mps 725 mmHg 53%
    23:00 +33°C° 0 mm 7 mps 725 mmHg 54%
    Show more